• In Belgien
  • Länderverzeichnis
  • Für 7 Tage
  • Wassertemperatur
  • Satellitenkarten
  • Wetterkarte
  • Widgets
  • user-avatar
    Anmelden

    Stündliche Wetter Haradok

    Heute, 11 Dezember, Montag

    Zeit Temperatur Niederschläge Wind Luftdruck Luftfeuchtigkeit
    00:00 -4°C° 0 mm 1 m/S 737 mmHg 94%
    01:00 -6°C° 0 mm 1 m/S 737 mmHg 94%
    02:00 -6°C° 0 mm 1 m/S 737 mmHg 95%
    03:00 -6°C° 0 mm 1 m/S 737 mmHg 95%
    04:00 -6°C° 0 mm 1 m/S 737 mmHg 95%
    05:00 -6°C° 0 mm 1 m/S 737 mmHg 95%
    06:00 -6°C° 0 mm 1 m/S 737 mmHg 94%
    07:00 -6°C° 0 mm 1 m/S 738 mmHg 94%
    08:00 -6°C° 0 mm 1 m/S 738 mmHg 93%
    09:00 -6°C° 0 mm 2 m/S 738 mmHg 92%
    10:00 -5°C° 0 mm 2 m/S 738 mmHg 90%
    11:00 -5°C° 0 mm 2 m/S 739 mmHg 89%
    12:00 -4°C° 0 mm 2 m/S 739 mmHg 89%
    13:00 -4°C° 0 mm 2 m/S 739 mmHg 89%
    14:00 -4°C° 0 mm 2 m/S 739 mmHg 90%
    15:00 -4°C° 0 mm 2 m/S 739 mmHg 91%
    16:00 -6°C° 0 mm 3 m/S 740 mmHg 92%
    17:00 -6°C° 0 mm 3 m/S 740 mmHg 93%
    18:00 -6°C° 0 mm 3 m/S 740 mmHg 93%
    19:00 -6°C° 0 mm 3 m/S 740 mmHg 94%
    20:00 -6°C° 0 mm 3 m/S 741 mmHg 94%
    21:00 -5°C° 0 mm 3 m/S 741 mmHg 94%
    22:00 -5°C° 0 mm 3 m/S 741 mmHg 94%
    23:00 -4°C° 0 mm 3 m/S 741 mmHg 94%

    Morgen, 12 Dezember, Dienstag

    Zeit Temperatur Niederschläge Wind Luftdruck Luftfeuchtigkeit
    00:00 -4°C° 0 mm 3 m/S 741 mmHg 94%
    01:00 -2°C° 0 mm 3 m/S 741 mmHg 94%
    02:00 -3°C° 0 mm 4 m/S 741 mmHg 94%
    03:00 -3°C° 0 mm 4 m/S 741 mmHg 93%
    04:00 -4°C° 0 mm 5 m/S 741 mmHg 93%
    05:00 -4°C° 0 mm 5 m/S 740 mmHg 93%
    06:00 -2°C° 0,2 mm 5 m/S 740 mmHg 92%
    07:00 -3°C° 0,2 mm 6 m/S 739 mmHg 92%
    08:00 -3°C° 0,2 mm 6 m/S 739 mmHg 92%
    09:00 -2°C° 0,1 mm 6 m/S 739 mmHg 93%
    10:00 -1°C° 0,1 mm 5 m/S 738 mmHg 93%
    11:00 0°C° 0,1 mm 5 m/S 738 mmHg 94%
    12:00 0°C° 0,1 mm 5 m/S 738 mmHg 95%
    13:00 0°C° 0,1 mm 5 m/S 737 mmHg 96%
    14:00 +1°C° 0,1 mm 6 m/S 737 mmHg 96%
    15:00 +1°C° 0,1 mm 6 m/S 737 mmHg 96%
    16:00 +1°C° 0,1 mm 5 m/S 737 mmHg 96%
    17:00 +2°C° 0,1 mm 5 m/S 737 mmHg 96%
    18:00 +2°C° 0 mm 5 m/S 737 mmHg 96%
    19:00 +2°C° 0 mm 5 m/S 738 mmHg 96%
    20:00 +2°C° 0 mm 5 m/S 738 mmHg 95%
    21:00 +2°C° 0 mm 5 m/S 738 mmHg 94%
    22:00 +2°C° 0 mm 5 m/S 739 mmHg 94%
    23:00 +2°C° 0 mm 5 m/S 739 mmHg 93%

    übermorgen, 13 Dezember, Mittwoch

    Zeit Temperatur Niederschläge Wind Luftdruck Luftfeuchtigkeit
    00:00 +1°C° 0 mm 5 m/S 740 mmHg 91%
    01:00 +1°C° 0 mm 5 m/S 740 mmHg 89%
    02:00 -1°C° 0 mm 6 m/S 741 mmHg 87%
    03:00 -1°C° 0 mm 6 m/S 741 mmHg 85%
    04:00 -1°C° 0 mm 6 m/S 741 mmHg 84%
    05:00 -2°C° 0 mm 6 m/S 741 mmHg 82%
    06:00 -2°C° 0 mm 6 m/S 741 mmHg 82%
    07:00 -2°C° 0 mm 6 m/S 742 mmHg 81%
    08:00 -2°C° 0 mm 6 m/S 742 mmHg 80%
    09:00 -2°C° 0 mm 6 m/S 743 mmHg 81%
    10:00 -2°C° 0 mm 6 m/S 744 mmHg 82%
    11:00 -1°C° 0 mm 5 m/S 744 mmHg 83%
    12:00 -1°C° 0 mm 5 m/S 745 mmHg 83%
    13:00 -1°C° 0 mm 5 m/S 745 mmHg 83%
    14:00 -1°C° 0 mm 4 m/S 745 mmHg 83%
    15:00 -2°C° 0 mm 4 m/S 746 mmHg 85%
    16:00 -2°C° 0 mm 3 m/S 746 mmHg 86%
    17:00 -2°C° 0 mm 3 m/S 746 mmHg 88%
    18:00 -4°C° 0 mm 3 m/S 746 mmHg 89%
    19:00 -4°C° 0 mm 3 m/S 747 mmHg 90%
    20:00 -4°C° 0 mm 3 m/S 747 mmHg 91%
    21:00 -4°C° 0 mm 3 m/S 747 mmHg 91%
    22:00 -3°C° 0 mm 2 m/S 747 mmHg 92%
    23:00 -4°C° 0 mm 2 m/S 747 mmHg 93%

    14 Dezember, Donnerstag

    Zeit Temperatur Niederschläge Wind Luftdruck Luftfeuchtigkeit
    00:00 -4°C° 0 mm 2 m/S 747 mmHg 93%
    01:00 -4°C° 0 mm 2 m/S 747 mmHg 93%
    02:00 -4°C° 0 mm 2 m/S 746 mmHg 93%
    03:00 -4°C° 0 mm 2 m/S 746 mmHg 92%
    04:00 -5°C° 0 mm 3 m/S 746 mmHg 91%
    05:00 -5°C° 0 mm 3 m/S 745 mmHg 90%
    06:00 -5°C° 0 mm 3 m/S 745 mmHg 90%
    07:00 -5°C° 0 mm 3 m/S 745 mmHg 89%
    08:00 -5°C° 0 mm 4 m/S 744 mmHg 89%
    09:00 -5°C° 0 mm 4 m/S 744 mmHg 87%
    10:00 -4°C° 0 mm 4 m/S 744 mmHg 86%
    11:00 -5°C° 0 mm 5 m/S 743 mmHg 84%
    12:00 -5°C° 0 mm 5 m/S 742 mmHg 85%
    13:00 -5°C° 0 mm 5 m/S 742 mmHg 85%
    14:00 -4°C° 0 mm 5 m/S 741 mmHg 85%
    15:00 -4°C° 0 mm 5 m/S 741 mmHg 86%
    16:00 -4°C° 0 mm 5 m/S 740 mmHg 87%
    17:00 -4°C° 0 mm 6 m/S 740 mmHg 88%
    18:00 -3°C° 0,1 mm 6 m/S 740 mmHg 88%
    19:00 -3°C° 0,1 mm 6 m/S 739 mmHg 88%
    20:00 -3°C° 0,1 mm 6 m/S 739 mmHg 88%
    21:00 -2°C° 0,2 mm 6 m/S 739 mmHg 88%
    22:00 -2°C° 0,2 mm 6 m/S 739 mmHg 88%
    23:00 -2°C° 0,2 mm 6 m/S 739 mmHg 88%

    15 Dezember, Freitag

    Zeit Temperatur Niederschläge Wind Luftdruck Luftfeuchtigkeit
    00:00 -1°C° 0 mm 5 m/S 739 mmHg 89%
    01:00 -1°C° 0 mm 5 m/S 739 mmHg 90%
    02:00 -1°C° 0 mm 4 m/S 739 mmHg 90%
    03:00 -1°C° 0 mm 4 m/S 739 mmHg 92%
    04:00 -1°C° 0 mm 3 m/S 739 mmHg 93%
    05:00 -1°C° 0 mm 3 m/S 739 mmHg 94%
    06:00 -1°C° 0 mm 3 m/S 740 mmHg 95%
    07:00 -1°C° 0 mm 3 m/S 740 mmHg 95%
    08:00 -2°C° 0 mm 3 m/S 740 mmHg 96%
    09:00 -1°C° 0 mm 3 m/S 740 mmHg 95%
    10:00 -1°C° 0 mm 3 m/S 740 mmHg 94%
    11:00 -1°C° 0 mm 4 m/S 740 mmHg 93%
    12:00 -1°C° 0 mm 4 m/S 739 mmHg 93%
    13:00 -1°C° 0 mm 4 m/S 738 mmHg 92%
    14:00 -1°C° 0 mm 4 m/S 738 mmHg 92%
    15:00 -1°C° 0,1 mm 5 m/S 737 mmHg 92%
    16:00 -1°C° 0,1 mm 5 m/S 737 mmHg 92%
    17:00 -1°C° 0,1 mm 5 m/S 736 mmHg 92%
    18:00 -1°C° 0,2 mm 5 m/S 735 mmHg 91%
    19:00 -1°C° 0,2 mm 5 m/S 735 mmHg 91%
    20:00 -1°C° 0,2 mm 5 m/S 734 mmHg 91%
    21:00 -1°C° 0,3 mm 5 m/S 734 mmHg 90%
    22:00 -1°C° 0,3 mm 5 m/S 734 mmHg 89%
    23:00 -1°C° 0,3 mm 6 m/S 734 mmHg 88%

    16 Dezember, Samstag

    Zeit Temperatur Niederschläge Wind Luftdruck Luftfeuchtigkeit
    00:00 -1°C° 0,1 mm 6 m/S 734 mmHg 87%
    01:00 -2°C° 0,1 mm 6 m/S 735 mmHg 85%
    02:00 -2°C° 0,1 mm 7 m/S 735 mmHg 84%
    03:00 -2°C° 0,1 mm 6 m/S 736 mmHg 84%
    04:00 -2°C° 0,1 mm 6 m/S 736 mmHg 85%
    05:00 -1°C° 0,1 mm 5 m/S 737 mmHg 85%
    06:00 -1°C° 0 mm 5 m/S 738 mmHg 87%
    07:00 -2°C° 0 mm 4 m/S 738 mmHg 88%
    08:00 -2°C° 0 mm 4 m/S 739 mmHg 90%
    09:00 -1°C° 0 mm 3 m/S 739 mmHg 91%
    10:00 -2°C° 0 mm 2 m/S 740 mmHg 91%
    11:00 -2°C° 0 mm 2 m/S 740 mmHg 92%
    12:00 0°C° 0 mm 1 m/S 740 mmHg 92%
    13:00 0°C° 0 mm 1 m/S 739 mmHg 93%
    14:00 -1°C° 0 mm 0 m/S 739 mmHg 93%
    15:00 0°C° 0 mm 1 m/S 739 mmHg 93%
    16:00 0°C° 0 mm 1 m/S 740 mmHg 94%
    17:00 0°C° 0 mm 1 m/S 740 mmHg 94%
    18:00 -1°C° 0 mm 1 m/S 740 mmHg 94%
    19:00 -1°C° 0 mm 1 m/S 740 mmHg 94%
    20:00 -1°C° 0 mm 1 m/S 741 mmHg 94%
    21:00 -1°C° 0 mm 1 m/S 741 mmHg 93%
    22:00 -1°C° 0 mm 1 m/S 741 mmHg 93%
    23:00 -1°C° 0 mm 1 m/S 742 mmHg 93%
    Mehr zeigen